Location: Unspecified
(51.0950°N, 12.9690°E)
Time: 22:41:45
(UTC+00:00)

Okean O Rocket - Pass Details

Date: 28 October 2021
Orbit: 623 x 643 km, 98.2° (Epoch: 01 December)

Event Time Altitude Azimuth Distance (km) Brightness Sun altitude
Rises 17:24:15 0° 171° (S) 2,897 4.9 -15.4°
Reaches altitude 10° 17:26:26 10° 174° (S) 1,997 4.1 -15.8°
Maximum altitude 17:30:45 67° 257° (WSW) 684 1.9 -16.4°
Drops below altitude 10° 17:35:09 10° 341° (NNW) 2,024 4.4 -17.1°
Sets 17:37:23 0° 344° (NNW) 2,940 5.2 -17.5°
